Terug naar catalogus

COSMOS 839 DEB

ActiefUNKNOWN
NORAD 10411·DEBRIS·🇷🇺 Russia

Gelanceerd Jul 8, 1976 vanaf Plesetsk Cosmodrome

Loading…

Volgende Passages (komende 24 uur)

TLE

VersSource: Space-Track

Epoch: Sep 14, 2026, 09:10 UTC

1 10411U 76067E   26257.38229346 -.00000062  00000-0 -34588-4 0  9994
2 10411  66.0186 247.7507 0666167 220.3862 295.6597 12.29225688252044

Volg COSMOS 839 DEB in realtime met AllMySat

Download on the App Store